Time,TemperatureF,DewpointF,PressureIn,WindDirection,WindDirectionDegrees,WindSpeedMPH,WindSpeedGustMPH,Humidity,HourlyPrecipIn,Conditions,Clouds,dailyrainin,SoftwareType,DateUTC
2013-04-18 02:02:00,59.0,57.0,29.65,NNW,340,14.0,23.0,93,0.02,,,-99.99,,2013-04-18 07:02:00,
2013-04-18 02:12:00,59.0,57.0,29.65,NNW,340,14.0,23.0,93,0.02,,,-99.99,,2013-04-18 07:12:00,
2013-04-18 02:22:00,59.0,55.0,29.63,NE,40,9.0,-999.0,87,0.02,,,-99.99,,2013-04-18 07:22:00,
2013-04-18 02:32:00,59.0,55.0,29.61,NNE,30,10.0,16.0,87,0.04,,,-99.99,,2013-04-18 07:32:00,
2013-04-18 02:42:00,59.0,57.0,29.60,North,360,9.0,17.0,93,0.05,,,-99.99,,2013-04-18 07:42:00,
2013-04-18 02:52:00,59.0,57.0,29.61,NNE,20,8.0,-999.0,93,0.06,,,-99.99,,2013-04-18 07:52:00,
2013-04-18 03:02:00,59.0,57.0,29.59,NNE,30,9.0,-999.0,93,0.08,,,-99.99,,2013-04-18 08:02:00,
2013-04-18 03:12:00,59.0,57.0,29.59,NNE,30,9.0,-999.0,93,0.08,,,-99.99,,2013-04-18 08:12:00,
2013-04-18 03:22:00,59.0,57.0,29.56,ENE,70,12.0,-999.0,93,0.02,,,-99.99,,2013-04-18 08:22:00,
2013-04-18 03:32:00,59.0,57.0,29.58,North,360,6.0,-999.0,93,0.05,,,-99.99,,2013-04-18 08:32:00,
2013-04-18 03:42:00,59.0,57.0,29.58,NNE,20,7.0,-999.0,93,0.08,,,-99.99,,2013-04-18 08:42:00,
2013-04-18 03:52:00,59.0,57.0,29.56,North,10,5.0,16.0,93,0.11,,,-99.99,,2013-04-18 08:52:00,
2013-04-18 04:02:00,61.0,59.0,29.60,East,90,5.0,23.0,93,0.15,,,-99.99,,2013-04-18 09:02:00,
2013-04-18 04:12:00,61.0,59.0,29.60,East,90,5.0,23.0,93,0.15,,,-99.99,,2013-04-18 09:12:00,
2013-04-18 04:22:00,61.0,59.0,29.59,SE,130,6.0,-999.0,93,0.03,,,-99.99,,2013-04-18 09:22:00,
2013-04-18 04:33:00,61.0,57.0,29.57,ENE,60,3.0,-999.0,87,0.06,,,-99.99,,2013-04-18 09:33:00,
2013-04-18 04:42:00,61.0,57.0,29.56,North,10,5.0,-999.0,87,0.09,,,-99.99,,2013-04-18 09:42:00,
2013-04-18 04:53:00,61.0,57.0,29.56,North,0,0.0,-999.0,87,0.12,,,-99.99,,2013-04-18 09:53:00,
2013-04-18 05:03:00,59.0,57.0,29.55,North,360,3.0,-999.0,93,0.14,,,-99.99,,2013-04-18 10:03:00,
2013-04-18 05:12:00,59.0,57.0,29.55,North,360,3.0,-999.0,93,0.14,,,-99.99,,2013-04-18 10:12:00,
2013-04-18 05:23:00,59.0,57.0,29.57,North,0,0.0,-999.0,93,0.03,,,-99.99,,2013-04-18 10:23:00,
2013-04-18 05:32:00,59.0,57.0,29.59,South,180,5.0,-999.0,93,0.05,,,-99.99,,2013-04-18 10:32:00,
2013-04-18 05:42:00,59.0,57.0,29.61,SW,220,5.0,-999.0,93,0.07,,,-99.99,,2013-04-18 10:42:00,
2013-04-18 05:52:00,59.0,57.0,29.60,North,0,0.0,-999.0,93,0.10,,,-99.99,,2013-04-18 10:52:00,
2013-04-18 06:02:00,59.0,57.0,29.60,SSE,160,5.0,-999.0,93,0.12,,,-99.99,,2013-04-18 11:02:00,
2013-04-18 06:12:00,59.0,57.0,29.60,SSE,160,5.0,-999.0,93,0.12,,,-99.99,,2013-04-18 11:12:00,
2013-04-18 06:22:00,59.0,57.0,29.60,North,0,0.0,-999.0,93,0.02,,,-99.99,,2013-04-18 11:22:00,
2013-04-18 06:32:00,59.0,57.0,29.60,North,0,0.0,-999.0,93,0.04,,,-99.99,,2013-04-18 11:32:00,
2013-04-18 06:42:00,59.0,57.0,29.60,North,0,0.0,-999.0,93,0.07,,,-99.99,,2013-04-18 11:42:00,
2013-04-18 06:52:00,59.0,57.0,29.59,North,0,0.0,-999.0,93,0.09,,,-99.99,,2013-04-18 11:52:00,
2013-04-18 07:02:00,59.0,57.0,29.58,SSE,150,3.0,-999.0,93,0.11,,,-99.99,,2013-04-18 12:02:00,
2013-04-18 07:12:00,59.0,57.0,29.58,SSE,150,3.0,-999.0,93,0.11,,,-99.99,,2013-04-18 12:12:00,
2013-04-18 07:22:00,59.0,57.0,29.53,ESE,110,7.0,-999.0,93,0.02,,,-99.99,,2013-04-18 12:22:00,
2013-04-18 07:32:00,59.0,57.0,29.54,SE,130,9.0,-999.0,93,0.04,,,-99.99,,2013-04-18 12:32:00,
2013-04-18 07:42:00,61.0,57.0,29.56,SSE,160,7.0,-999.0,87,0.06,,,-99.99,,2013-04-18 12:42:00,
2013-04-18 07:52:00,61.0,57.0,29.57,South,190,6.0,-999.0,87,0.08,,,-99.99,,2013-04-18 12:52:00,
2013-04-18 08:02:00,61.0,59.0,29.58,South,180,9.0,-999.0,93,0.09,,,-99.99,,2013-04-18 13:02:00,
2013-04-18 08:12:00,61.0,59.0,29.58,South,180,9.0,-999.0,93,0.09,,,-99.99,,2013-04-18 13:12:00,
2013-04-18 08:22:00,61.0,59.0,29.59,South,180,7.0,-999.0,93,0.01,,,-99.99,,2013-04-18 13:22:00,
2013-04-18 08:32:00,61.0,59.0,29.58,SSE,160,7.0,-999.0,93,0.03,,,-99.99,,2013-04-18 13:32:00,
2013-04-18 08:53:00,61.0,59.0,29.56,SE,140,6.0,-999.0,93,0.07,,,-99.99,,2013-04-18 13:53:00,
2013-04-18 09:02:00,61.0,59.0,29.57,SE,140,6.0,-999.0,93,0.08,,,-99.99,,2013-04-18 14:02:00,
2013-04-18 09:12:00,61.0,59.0,29.57,SE,140,6.0,-999.0,93,0.08,,,-99.99,,2013-04-18 14:12:00,
2013-04-18 09:22:00,61.0,59.0,29.57,SE,140,6.0,-999.0,93,0.08,,,-99.99,,2013-04-18 14:22:00,
2013-04-18 09:32:00,61.0,59.0,29.57,SE,140,6.0,-999.0,93,0.08,,,-99.99,,2013-04-18 14:32:00,
2013-04-18 09:42:00,61.0,59.0,29.57,SE,140,6.0,-999.0,93,0.08,,,-99.99,,2013-04-18 14:42:00,
2013-04-18 13:33:00,54.0,50.0,29.56,WSW,250,25.0,37.0,87,0.03,,,-99.99,,2013-04-18 18:33:00,
2013-04-18 13:43:00,52.0,48.0,29.56,West,260,22.0,38.0,87,0.04,,,-99.99,,2013-04-18 18:43:00,
2013-04-18 13:52:00,52.0,48.0,29.57,WSW,240,17.0,32.0,87,0.05,,,-99.99,,2013-04-18 18:52:00,
2013-04-18 14:02:00,50.0,46.0,29.58,WSW,250,24.0,32.0,87,0.06,,,-99.99,,2013-04-18 19:02:00,
2013-04-18 14:12:00,50.0,46.0,29.58,WSW,250,24.0,32.0,87,0.06,,,-99.99,,2013-04-18 19:12:00,
2013-04-18 14:22:00,48.0,45.0,29.60,WSW,240,20.0,29.0,87,0.01,,,-99.99,,2013-04-18 19:22:00,
2013-04-18 14:32:00,48.0,45.0,29.58,WSW,250,21.0,30.0,87,0.02,,,-99.99,,2013-04-18 19:32:00,
2013-04-18 14:42:00,48.0,45.0,29.62,WSW,240,24.0,33.0,87,0.03,,,-99.99,,2013-04-18 19:42:00,
2013-04-18 14:53:00,48.0,43.0,29.63,WSW,240,22.0,30.0,81,0.04,,,-99.99,,2013-04-18 19:53:00,
2013-04-18 15:02:00,48.0,43.0,29.63,WSW,250,23.0,31.0,81,0.05,,,-99.99,,2013-04-18 20:02:00,
2013-04-18 15:12:00,48.0,43.0,29.63,WSW,250,23.0,31.0,81,0.05,,,-99.99,,2013-04-18 20:12:00,
2013-04-18 15:22:00,46.0,43.0,29.63,WSW,250,16.0,29.0,87,0.01,,,-99.99,,2013-04-18 20:22:00,
2013-04-18 15:32:00,46.0,43.0,29.63,WSW,240,23.0,30.0,87,0.01,,,-99.99,,2013-04-18 20:32:00,
2013-04-18 15:42:00,46.0,41.0,29.64,WSW,240,17.0,27.0,81,0.02,,,-99.99,,2013-04-18 20:42:00,
2013-04-18 15:52:00,46.0,41.0,29.65,WSW,240,20.0,27.0,81,0.03,,,-99.99,,2013-04-18 20:52:00,
2013-04-18 16:02:00,46.0,41.0,29.65,WSW,250,18.0,25.0,81,0.04,,,-99.99,,2013-04-18 21:02:00,
2013-04-18 16:12:00,46.0,41.0,29.65,WSW,250,18.0,25.0,81,0.04,,,-99.99,,2013-04-18 21:12:00,
2013-04-18 16:22:00,46.0,41.0,29.64,WSW,250,22.0,30.0,81,0.01,,,-99.99,,2013-04-18 21:22:00,
2013-04-18 16:32:00,46.0,41.0,29.63,WSW,250,21.0,30.0,81,0.02,,,-99.99,,2013-04-18 21:32:00,
2013-04-18 16:43:00,46.0,41.0,29.65,WSW,250,21.0,25.0,81,0.03,,,-99.99,,2013-04-18 21:43:00,
2013-04-18 16:53:00,46.0,39.0,29.65,WSW,250,16.0,22.0,75,0.04,,,-99.99,,2013-04-18 21:53:00,
2013-04-18 17:02:00,46.0,39.0,29.66,WSW,240,18.0,25.0,75,0.04,,,-99.99,,2013-04-18 22:02:00,
2013-04-18 17:13:00,46.0,39.0,29.66,WSW,240,18.0,25.0,75,0.04,,,-99.99,,2013-04-18 22:13:00,
2013-04-18 17:22:00,46.0,39.0,29.66,WSW,250,22.0,33.0,75,-99.99,,,-99.99,,2013-04-18 22:22:00,
2013-04-18 17:32:00,46.0,37.0,29.67,WSW,240,21.0,29.0,70,0.01,,,-99.99,,2013-04-18 22:32:00,
2013-04-18 17:42:00,46.0,37.0,29.67,WSW,250,17.0,28.0,70,0.02,,,-99.99,,2013-04-18 22:42:00,
2013-04-18 17:52:00,46.0,37.0,29.68,WSW,250,17.0,27.0,70,0.03,,,-99.99,,2013-04-18 22:52:00,
2013-04-18 18:03:00,46.0,37.0,29.68,West,260,20.0,24.0,70,0.03,,,-99.99,,2013-04-18 23:03:00,
2013-04-18 18:11:00,46.0,37.0,29.68,West,260,20.0,24.0,70,0.03,,,-99.99,,2013-04-18 23:11:00,
2013-04-18 18:21:00,46.0,37.0,29.69,West,260,21.0,25.0,70,0.01,,,-99.99,,2013-04-18 23:21:00,
2013-04-18 18:32:00,46.0,37.0,29.69,West,260,18.0,24.0,70,0.02,,,-99.99,,2013-04-18 23:32:00,
2013-04-18 18:42:00,46.0,37.0,29.69,West,260,21.0,28.0,70,0.02,,,-99.99,,2013-04-18 23:42:00,
2013-04-18 18:52:00,45.0,37.0,29.70,West,260,23.0,31.0,75,0.03,,,-99.99,,2013-04-18 23:52:00,
2013-04-18 19:01:00,45.0,36.0,29.71,West,260,25.0,30.0,70,0.04,,,-99.99,,2013-04-19 00:01:00,
2013-04-18 19:12:00,45.0,36.0,29.71,West,260,25.0,30.0,70,0.04,,,-99.99,,2013-04-19 00:12:00,
2013-04-18 19:21:00,45.0,36.0,29.72,West,260,23.0,28.0,70,-99.99,,,-99.99,,2013-04-19 00:21:00,
2013-04-18 19:32:00,45.0,36.0,29.73,WSW,250,20.0,28.0,70,0.01,,,-99.99,,2013-04-19 00:32:00,
2013-04-18 19:42:00,45.0,36.0,29.73,WSW,250,20.0,28.0,70,0.01,,,-99.99,,2013-04-19 00:42:00,
2013-04-18 19:52:00,43.0,36.0,29.74,West,270,17.0,31.0,75,0.02,,,-99.99,,2013-04-19 00:52:00,
2013-04-18 20:01:00,43.0,36.0,29.74,West,270,20.0,24.0,75,0.03,,,-99.99,,2013-04-19 01:01:00,
2013-04-18 20:11:00,43.0,36.0,29.74,West,270,20.0,24.0,75,0.03,,,-99.99,,2013-04-19 01:11:00,
2013-04-18 20:21:00,43.0,34.0,29.76,West,270,17.0,27.0,70,-99.99,,,-99.99,,2013-04-19 01:21:00,
2013-04-18 20:31:00,43.0,34.0,29.76,West,270,15.0,27.0,70,0.01,,,-99.99,,2013-04-19 01:31:00,
2013-04-18 20:42:00,43.0,34.0,29.76,West,270,17.0,24.0,70,0.01,,,-99.99,,2013-04-19 01:42:00,
2013-04-18 20:52:00,43.0,34.0,29.76,West,270,14.0,-999.0,70,0.02,,,-99.99,,2013-04-19 01:52:00,
2013-04-18 21:01:00,43.0,32.0,29.76,West,280,17.0,25.0,65,0.02,,,-99.99,,2013-04-19 02:01:00,
2013-04-18 21:11:00,43.0,32.0,29.76,West,280,17.0,25.0,65,0.02,,,-99.99,,2013-04-19 02:11:00,
2013-04-18 21:21:00,41.0,34.0,29.76,West,270,20.0,24.0,75,-99.99,,,-99.99,,2013-04-19 02:21:00,
2013-04-18 21:32:00,41.0,34.0,29.76,West,270,22.0,32.0,75,0.01,,,-99.99,,2013-04-19 02:32:00,
2013-04-18 21:42:00,41.0,32.0,29.77,West,270,21.0,29.0,70,0.02,,,-99.99,,2013-04-19 02:42:00,
2013-04-18 21:52:00,41.0,32.0,29.78,West,280,20.0,29.0,70,0.02,,,-99.99,,2013-04-19 02:52:00,
2013-04-18 22:01:00,41.0,30.0,29.78,West,280,23.0,28.0,65,0.03,,,-99.99,,2013-04-19 03:01:00,
2013-04-18 22:11:00,41.0,30.0,29.78,West,280,23.0,28.0,65,0.03,,,-99.99,,2013-04-19 03:11:00,
2013-04-18 22:21:00,41.0,30.0,29.78,West,280,17.0,24.0,65,0.01,,,-99.99,,2013-04-19 03:21:00,
2013-04-18 22:33:00,41.0,30.0,29.78,West,280,18.0,27.0,65,0.01,,,-99.99,,2013-04-19 03:33:00,
2013-04-18 22:43:00,41.0,32.0,29.78,West,270,22.0,27.0,70,0.02,,,-99.99,,2013-04-19 03:43:00,
2013-04-18 22:53:00,39.0,30.0,29.78,West,270,21.0,29.0,69,0.02,,,-99.99,,2013-04-19 03:53:00,
2013-04-18 23:03:00,39.0,30.0,29.78,West,270,18.0,25.0,69,0.03,,,-99.99,,2013-04-19 04:03:00,
2013-04-18 23:13:00,39.0,30.0,29.78,West,270,18.0,25.0,69,0.03,,,-99.99,,2013-04-19 04:13:00,
2013-04-18 23:23:00,39.0,30.0,29.78,West,270,16.0,24.0,69,-99.99,,,-99.99,,2013-04-19 04:23:00,
2013-04-18 23:33:00,39.0,28.0,29.77,West,270,21.0,28.0,64,0.01,,,-99.99,,2013-04-19 04:33:00,
2013-04-18 23:43:00,39.0,28.0,29.76,West,270,20.0,28.0,64,0.01,,,-99.99,,2013-04-19 04:43:00,
2013-04-18 23:52:00,39.0,28.0,29.76,West,270,18.0,28.0,64,0.02,,,-99.99,,2013-04-19 04:52:00,